User: anonymous   Login
Location: Unspecified
(0.0000°N, 0.0000°E)
Time: 14:36:52
(UTC+00:00)
Language:

TMSAT-1 - Orbit

View from above orbital plane
View from above orbital plane
View from above satellite
View from above satellite

Ground track
Ground track

The orbit data is extracted from the following two-line orbital elements,

1 25396U 98043C   17147.85979663 +.00000013 +00000-0 +24340-4 0  9993
2 25396 098.5831 092.3325 0003415 044.1319 316.0132 14.24440948981059
Epoch (UTC): 27 May 2017 20:38:06
Eccentricity: 0.0003415
inclination: 98.5831°
perigee height: 808 km
apogee height: 813 km
right ascension of ascending node: 92.3325°
argument of perigee: 44.1319°
revolutions per day: 14.24440948
mean anomaly at epoch: 316.0132°
orbit number at epoch: 98105

The dashed part of the orbit path shows where the satellite is in the earth's shadow,  

DLR